Content
SEND FEEDBACK

Daily
Averages
Monthly
Summary
United States of America

ROCK HILL, NEW YORK


Home > North America > United States > New York
Elevation: 1260 feet     Latitude: 41 35N     Longitude: 074 37W

WEATHER
 
SELECT A DAY
Number of Records: 444,118;   Date Range: 1/1/95 - 9/20/14
 
SHARE

PRINT THIS DATA

[ ← Previous Day ]
WEATHER ALMANAC - SEPTEMBER 2, 2014
[ Next Day → ]
[ °C ]   °F
Weather ElementAverageHighLow
Temperature73.6 °F84.2 °F (1:35 pm)62.6 °F (6:35 am)
Dewpoint66.4 °F69.8 °F (8:15 am)62.6 °F (3:35 am)
Humidity80.5 %100 % (12:35 am)48 % (4:55 pm)
Barometer29.93 in30.00 in (12:35 am)29.84 in (10:15 pm)
Wind Speed4.9 mph13.8 mph (10:35 pm)
Wind Gust21.9 mph (10:35 pm)
Weather ElementAverage
Visibility7.1 mi
Wind DirectionSSE (143.9 °)

Weather ElementTotal
Precipitation---
Cooling Degree Days8.4 (Base 65)
Growing Degree Days23.4 (Base 50)
Averaged from 70 records on September 2, 2014
WEATHER CONDITIONS BREAKOUT
WIND DIRECTION BREAKOUT
WEATHER BY HOUR - SEPTEMBER 2, 2014
[ °C ]   °F
Local TimeTemperatureDewpointHumidityBarometerVisibilityWind DirectionWind SpeedGust SpeedPrecipitationEventsConditions
12:35 AM68.0 °F68.0 °F100 %30.00 in3.0 miCalmClear
12:55 AM66.2 °F64.4 °F94 %30.00 in4.0 miCalmClear
1:15 AM68.0 °F68.0 °F100 %29.99 in3.0 miCalmClear
1:35 AM66.2 °F66.2 °F100 %29.99 in0.2 miCalm
1:55 AM66.2 °F66.2 °F100 %29.99 in3.0 miCalmClear
2:15 AM68.0 °F66.2 °F94 %29.98 in5.0 miCalmClear
2:35 AM66.2 °F64.4 °F94 %29.97 in1.2 miCalmClear
2:55 AM66.2 °F66.2 °F100 %29.97 in4.0 miCalmClear
3:15 AM64.4 °F64.4 °F100 %29.97 in0.8 miCalmMostly Cloudy
3:35 AM64.4 °F62.6 °F94 %29.97 in0.5 miCalmOvercast
3:55 AM64.4 °F64.4 °F100 %29.97 in0.8 miCalmMostly Cloudy
4:15 AM64.4 °F64.4 °F100 %29.96 in0.2 miCalmMostly Cloudy
4:35 AM64.4 °F62.6 °F94 %29.96 in0.2 miCalmOvercast
4:55 AM64.4 °F64.4 °F100 %29.95 in0.2 miCalmOvercast
5:15 AM64.4 °F64.4 °F100 %29.95 in0.2 miCalmOvercast
5:35 AM64.4 °F62.6 °F94 %29.95 in0.2 miCalmOvercast
5:55 AM64.4 °F64.4 °F100 %29.95 in0.2 miCalmOvercast
6:15 AM64.4 °F64.4 °F100 %29.96 in0.2 miCalmOvercast
6:35 AM62.6 °F62.6 °F100 %29.97 in0.2 miCalmOvercast
6:55 AM64.4 °F64.4 °F100 %29.97 in0.2 miCalmOvercast
7:15 AM64.4 °F64.4 °F100 %29.98 in0.2 miCalmOvercast
7:35 AM66.2 °F64.4 °F94 %29.98 in2.5 miCalmScattered Clouds
7:55 AM66.2 °F66.2 °F100 %29.99 in3.0 miCalmClear
8:15 AM69.8 °F69.8 °F100 %29.99 in8.0 miCalmClear
8:35 AM69.8 °F69.8 °F100 %30.00 in10.0 miWest (260°)4.6 mphClear
8:55 AM71.6 °F69.8 °F94 %29.99 in10.0 miWest (260°)3.5 mphScattered Clouds
9:15 AM73.4 °F69.8 °F88 %29.99 in10.0 miCalmMostly Cloudy
9:35 AM73.4 °F69.8 °F88 %29.98 in10.0 miNorthScattered Clouds
9:55 AM75.2 °F69.8 °F83 %29.99 in10.0 miNorthPartly Cloudy
10:15 AM77.0 °F69.8 °F78 %29.98 in10.0 miWNW (290°)8.1 mphMostly Cloudy
10:35 AM78.8 °F69.8 °F74 %29.99 in10.0 miWest (270°)9.2 mphMostly Cloudy
10:55 AM77.0 °F69.8 °F78 %29.99 in10.0 miWest (260°)6.9 mphMostly Cloudy
11:15 AM77.0 °F69.8 °F78 %29.98 in10.0 miWest (260°)4.6 mphMostly Cloudy
11:35 AM78.8 °F69.8 °F74 %29.98 in10.0 miWSW (240°)5.8 mphScattered Clouds
11:55 AM80.6 °F69.8 °F70 %29.97 in10.0 miWSW (250°)3.5 mphMostly Cloudy
12:15 PM80.6 °F69.8 °F70 %29.97 in10.0 miWSW (250°)4.6 mphMostly Cloudy
12:35 PM80.6 °F69.8 °F70 %29.96 in10.0 miCalmMostly Cloudy
12:55 PM80.6 °F69.8 °F70 %29.95 in10.0 miWSW (250°)6.9 mphOvercast
1:15 PM82.4 °F68.0 °F62 %29.95 in10.0 miSSW (200°)8.1 mphMostly Cloudy
1:35 PM84.2 °F68.0 °F58 %29.94 in10.0 miWSW (250°)9.2 mphMostly Cloudy
1:55 PM84.2 °F68.0 °F58 %29.93 in10.0 miSSW (200°)9.2 mphMostly Cloudy
2:15 PM84.2 °F68.0 °F58 %29.92 in10.0 miWSW (240°)3.5 mphScattered Clouds
2:35 PM82.4 °F66.2 °F58 %29.91 in10.0 miWSW (250°)5.8 mphPartly Cloudy
2:55 PM84.2 °F66.2 °F55 %29.91 in10.0 miWSW (240°)9.2 mphPartly Cloudy
3:15 PM84.2 °F64.4 °F51 %29.90 in10.0 miSW (220°)12.7 mph17.3 mphScattered Clouds
3:35 PM84.2 °F66.2 °F55 %29.90 in10.0 miWSW (250°)8.1 mph17.3 mphPartly Cloudy
3:55 PM84.2 °F66.2 °F55 %29.89 in10.0 miSW (230°)9.2 mphClear
4:15 PM82.4 °F64.4 °F54 %29.89 in10.0 miSSW (210°)9.2 mph16.1 mphScattered Clouds
4:35 PM84.2 °F64.4 °F51 %29.88 in10.0 miWSW (250°)10.4 mph19.6 mphScattered Clouds
4:55 PM84.2 °F62.6 °F48 %29.87 in10.0 miWSW (250°)9.2 mphPartly Cloudy
5:15 PM84.2 °F64.4 °F51 %29.87 in10.0 miSW (230°)9.2 mphClear
5:35 PM84.2 °F64.4 °F51 %29.86 in10.0 miWSW (240°)6.9 mph16.1 mphClear
5:55 PM82.4 °F64.4 °F54 %29.85 in10.0 miSW (230°)10.4 mphClear
6:15 PM82.4 °F64.4 °F54 %29.85 in10.0 miSSW (210°)6.9 mphClear
6:55 PM80.6 °F64.4 °F58 %29.86 in10.0 miSW (220°)5.8 mphPartly Cloudy
7:15 PM78.8 °F64.4 °F61 %29.85 in10.0 miSSW (210°)5.8 mphPartly Cloudy
7:35 PM78.8 °F64.4 °F61 %29.86 in10.0 miSSW (210°)6.9 mphScattered Clouds
7:55 PM77.0 °F64.4 °F65 %29.85 in10.0 miSSW (200°)10.4 mphPartly Cloudy
8:15 PM77.0 °F66.2 °F69 %29.85 in10.0 miSSW (210°)9.2 mphClear
8:35 PM77.0 °F66.2 °F69 %29.85 in10.0 miSSW (210°)8.1 mphClear
8:55 PM75.2 °F66.2 °F73 %29.86 in10.0 miSW (220°)9.2 mphMostly Cloudy
9:15 PM73.4 °F68.0 °F83 %29.86 in10.0 miSW (220°)5.8 mphOvercast
9:35 PM71.6 °F68.0 °F88 %29.85 in10.0 miSSW (200°)6.9 mphMostly Cloudy
9:55 PM71.6 °F68.0 °F88 %29.85 in10.0 miSW (220°)8.1 mphMostly Cloudy
10:15 PM71.6 °F69.8 °F94 %29.84 in6.0 miSW (230°)9.2 mphOvercast
10:35 PM69.8 °F69.8 °F100 %29.86 in7.0 miWNW (290°)13.8 mph21.9 mphOvercast
10:55 PM68.0 °F66.2 °F94 %29.87 in10.0 miWNW (290°)11.5 mph19.6 mphMostly Cloudy
11:15 PM66.2 °F66.2 °F100 %29.87 in10.0 miWest (280°)9.2 mph17.3 mphClear
11:35 PM66.2 °F64.4 °F94 %29.89 in10.0 miWest (280°)9.2 mphMostly Cloudy
11:55 PM66.2 °F64.4 °F94 %29.89 in10.0 miWNW (290°)10.4 mph18.4 mphOvercast
Hourly data recorded from KMSV, located miles away from Rock Hill, New York







STORIES FROM OUR PARTNERS